Anchorage Merrill, AK

8:43 AM AKDT on April 29, 2017 (GMT -0800)
Merrill

Weather History for PAMR - June, 2013

Change the Weather History Date:

Monday, June 17, 2013

  Actual Average Record
Temperature  
Mean Temperature 70 °F -  
Max Temperature 79 °F 63 °F 80 °F (2015)
Min Temperature 60 °F 48 °F 44 °F (1997)
Cooling Degree Days 4    
Growing Degree Days 20 (Base 50)    
Moisture  
Dew Point 50 °F    
Average Humidity 49    
Maximum Humidity 75    
Minimum Humidity 36    
Precipitation  
Precipitation 0.00 in - - ()
Sea Level Pressure  
Sea Level Pressure 30.01 in    
Wind  
Wind Speed 2 mph (NW)    
Max Wind Speed 7 mph    
Max Gust Speed -    
Visibility 10 miles    
Events      
Averages and records for this station are not official NWS values.
T = Trace of Precipitation, MM = Missing Value Source: NWS Daily Summary

Daily Weather History Graph

Daily Weather History Graph

Search for Another Location

Airport or City:

Trip Planner

Search our weather history database for the weather conditions in past years. The results will help you decide how hot, cold, wet, or windy it might be!

Date:

Astronomy

Jun. 17, 2013 Rise Set
Actual Time 4:20 AM AKDT 11:41 PM AKDT
Civil Twilight 2:32 AM AKDT 1:28 AM AKDT
Nautical Twilight Sun does not set Sun does not set
Astronomical Twilight Sun does not set Sun does not set
Moon 3:52 PM AKDT (6/17) 1:50 AM AKDT (6/17)
Length of Visible Light 22h 55m
Length of Day
19h 21m
First Quarter, 62% of the Moon is Illuminated
Jun 17
First Quarter
Jun 23
Full
Jun 29
Last Quarter
Jul 7
New
Jul 15
First Quarter

Hourly Weather History & Observations

Time (AKDT) Temp. Dew Point Humidity Pressure Visibility Wind Dir Wind Speed Gust Speed Precip Events Conditions
12:53 AM 64.9 °F 51.1 °F 61% 30.11 in 10.0 mi Calm Calm - N/A   Partly Cloudy
1:53 AM 63.0 °F 51.1 °F 65% 30.11 in 10.0 mi Calm Calm - N/A   Partly Cloudy
2:53 AM 62.1 °F 51.1 °F 67% 30.12 in 10.0 mi Calm Calm - N/A   Partly Cloudy
3:53 AM 60.1 °F 50.0 °F 69% 30.12 in 10.0 mi East 3.5 mph - N/A   Partly Cloudy
4:53 AM 60.1 °F 52.0 °F 75% 30.11 in 10.0 mi Calm Calm - N/A   Clear
5:53 AM 60.1 °F 50.0 °F 69% 30.11 in 10.0 mi East 3.5 mph - N/A   Clear
6:53 AM 64.0 °F 51.1 °F 63% 30.10 in 10.0 mi Calm Calm - N/A   Clear
7:53 AM 68.0 °F 48.9 °F 50% 30.10 in 10.0 mi Calm Calm - N/A   Clear
8:53 AM 69.1 °F 48.0 °F 47% 30.09 in 10.0 mi WNW 4.6 mph - N/A   Clear
9:53 AM 70.0 °F 46.0 °F 42% 30.09 in 10.0 mi WNW 3.5 mph - N/A   Clear
10:53 AM 70.0 °F 48.0 °F 46% 30.06 in 10.0 mi NW 5.8 mph - N/A   Clear
11:53 AM 72.0 °F 48.9 °F 44% 30.05 in 10.0 mi NW 5.8 mph - N/A   Clear
12:53 PM 75.9 °F 48.9 °F 38% 30.03 in 10.0 mi NNW 6.9 mph - N/A   Clear
1:53 PM 75.0 °F 50.0 °F 41% 30.01 in 10.0 mi NW 6.9 mph - N/A   Clear
2:53 PM 73.0 °F 50.0 °F 44% 29.99 in 10.0 mi WNW 5.8 mph - N/A   Clear
3:53 PM 73.9 °F 50.0 °F 43% 29.96 in 10.0 mi NW 5.8 mph - N/A   Clear
4:53 PM 75.9 °F 48.0 °F 37% 29.94 in 10.0 mi West 6.9 mph - N/A   Clear
5:53 PM 75.9 °F 50.0 °F 40% 29.91 in 10.0 mi NW 6.9 mph - N/A   Clear
6:53 PM 79.0 °F 50.0 °F 36% 29.90 in 10.0 mi West 5.8 mph - N/A   Clear
7:53 PM 78.1 °F 50.0 °F 37% 29.88 in 10.0 mi NW 4.6 mph - N/A   Clear
8:53 PM 73.0 °F 48.9 °F 42% 29.87 in 10.0 mi NW 4.6 mph - N/A   Clear
9:53 PM 75.9 °F 50.0 °F 40% 29.86 in 10.0 mi Calm Calm - N/A   Clear
10:53 PM 73.9 °F 48.0 °F 40% 29.85 in 10.0 mi Calm Calm - N/A   Clear
11:53 PM 72.0 °F 48.9 °F 44% 29.85 in 10.0 mi NE 3.5 mph - N/A   Clear